Wind_Speed
10 12 13 13 13 12 11 10 9 7 6 5 5 5 6 6 6 7 6 7 7 7 8 8 9 9 10 10 11 11 12 13 13 14 14 14 14 15 15 16 17 18 19
12 12 12 13 12 12 11 10 8 7 6 5 4 5 5 6 6 6 6 6 6 7 7 8 8 9 10 10 11 12 12 12 13 14 14 14 14 15 16 16 17 18 19
11 12 12 12 12 11 11 9 8 7 6 5 4 4 5 5 5 5 5 5 6 6 7 7 8 9 10 10 11 12 12 13 13 14 14 15 15 15 16 17 18 19 20
10 11 11 11 11 11 10 9 8 6 5 4 4 4 4 3 3 3 4 5 5 6 7 8 9 9 10 11 12 12 13 13 14 14 15 15 16 16 16 17 18 20 21
10 11 11 11 11 10 9 8 7 6 5 4 4 4 3 2 2 3 4 4 5 6 6 7 8 9 10 11 13 13 14 14 15 15 16 17 17 18 19 19 20 21 22
8 9 10 10 9 8 8 8 7 6 5 5 4 4 3 2 2 3 3 4 5 5 6 8 9 10 11 13 14 15 16 16 17 17 17 18 19 20 20 21 22 23 24
6 7 8 8 8 8 7 7 7 7 6 6 5 4 3 3 3 3 3 4 5 6 7 8 9 11 12 14 15 16 18 18 19 19 19 20 20 21 21 22 23 24 25
5 6 7 7 7 8 8 8 8 7 7 6 6 5 4 4 4 4 4 4 5 6 8 9 11 12 14 15 17 18 19 20 21 21 21 22 22 22 22 23 24 25 26
5 6 7 7 8 8 8 8 8 8 8 7 7 6 5 5 5 5 6 6 7 8 9 11 13 14 16 17 19 20 21 22 23 23 23 24 24 24 25 25 25 25 26
7 7 8 9 9 9 9 9 9 9 9 8 8 8 7 7 7 7 8 8 9 10 12 13 15 16 18 19 21 22 23 25 25 26 26 25 25 26 26 26 26 26 26
9 9 9 9 10 10 10 10 10 10 10 10 10 9 9 9 9 9 9 10 11 13 14 16 17 18 20 22 23 25 26 26 27 28 28 27 28 28 28 28 28 28 27
10 11 11 11 11 11 11 12 12 12 12 12 12 11 11 11 11 11 12 13 14 15 17 18 19 21 22 24 25 26 28 28 29 29 29 29 30 30 30 30 30 29 29
11 12 13 13 13 13 14 14 14 14 14 14 14 13 13 13 13 14 15 16 17 18 19 21 22 23 24 26 27 28 29 30 31 31 31 31 32 32 32 32 32 31 31
13 14 14 15 15 15 15 15 15 16 16 16 16 16 16 16 16 17 18 19 20 21 22 23 24 25 27 28 29 30 31 31 32 32 33 33 33 34 34 34 34 34 33
15 15 16 16 16 16 17 17 17 17 18 18 18 18 18 19 19 20 21 22 23 24 25 26 27 28 29 30 31 32 33 33 34 34 34 35 35 35 35 35 35 35 35
16 17 17 17 17 18 18 19 19 20 20 19 20 20 21 21 22 23 24 25 26 28 29 29 30 31 32 33 34 35 35 35 35 35 36 36 36 36 36 36 36 37 37
18 18 18 18 19 19 20 20 21 22 21 21 22 22 23 24 25 26 27 28 30 31 31 32 33 34 35 36 36 37 36 36 36 37 37 38 38 37 37 38 38 38 38
20 20 20 20 21 21 22 23 22 23 23 23 24 25 26 27 28 29 30 31 32 33 34 35 36 37 37 38 38 38 38 38 38 39 39 40 39 39 39 39 39 39 39
24 24 24 23 23 23 24 25 24 24 25 26 27 27 28 29 30 32 33 34 35 35 36 37 38 39 40 40 40 40 40 40 41 41 41 41 41 41 41 40 40 40 40
27 27 27 25 25 26 26 25 25 26 27 28 29 30 30 32 33 34 35 36 37 38 38 39 40 40 41 42 42 42 42 42 43 43 43 43 43 42 43 42 41 41 40
30 29 28 27 28 28 27 27 28 28 29 30 30 32 33 34 36 37 38 39 40 40 41 41 42 43 43 44 44 45 45 45 45 45 45 45 45 44 44 43 42 42 40
29 29 30 29 30 30 30 29 30 30 31 32 32 34 35 37 38 40 41 41 42 43 44 44 45 45 45 45 46 47 48 47 47 46 46 46 46 46 45 44 43 42 41
29 29 29 29 30 31 31 32 32 32 33 34 36 37 38 40 42 43 43 44 45 46 46 47 47 47 48 48 48 49 49 50 50 49 48 48 47 47 46 45 44 43 41
27 27 28 30 31 32 33 33 34 34 35 36 38 40 41 43 45 45 46 48 48 49 50 49 50 50 50 50 51 51 51 52 52 52 50 49 48 48 46 45 44 43 41
27 27 28 29 31 32 34 36 36 36 38 40 41 43 44 45 47 48 49 50 51 52 52 52 53 53 53 53 54 54 54 54 55 54 52 51 50 49 48 46 45 43 42
28 28 29 31 32 33 34 36 38 39 41 42 44 45 47 48 49 50 51 52 53 54 55 56 56 57 57 57 57 57 57 57 56 55 53 52 50 49 47 46 44 43 42
Wind_Direction
194 191 189 184 185 188 190 191 195 205 219 236 249 267 280 286 298 304 309 317 318 316 315 317 316 313 314 316 317 316 311 304 301 297 294 289 282 277 273 270 267 262 261
183 183 186 188 187 183 185 191 198 209 215 222 244 266 280 287 299 308 314 317 319 322 324 324 322 322 323 322 322 322 320 314 308 304 300 295 289 284 279 274 270 266 264
180 180 182 184 188 188 195 198 197 197 209 228 252 272 281 289 296 305 315 321 325 329 331 332 331 332 332 329 327 326 324 322 318 313 308 302 297 292 285 279 273 270 266
174 175 179 182 187 191 192 190 191 199 212 229 251 266 278 289 295 307 319 326 331 334 338 340 339 338 337 334 332 330 327 325 321 317 313 310 305 301 295 287 281 275 271
168 174 176 177 181 184 189 192 196 203 210 219 237 248 262 280 294 310 318 325 332 336 339 342 343 342 340 338 337 335 333 329 324 320 315 310 306 302 297 292 287 281 276
167 173 178 177 179 184 191 194 196 203 210 216 226 235 248 268 287 299 310 323 333 339 342 344 344 345 343 340 338 336 334 331 327 322 317 311 307 302 297 293 289 285 279
172 174 180 183 188 191 194 199 202 207 213 219 225 233 243 257 270 286 305 317 326 333 336 339 341 341 341 340 338 336 335 331 327 323 319 314 309 304 301 297 292 288 283
186 189 193 196 200 204 205 210 211 212 218 224 228 233 240 246 257 274 291 303 313 322 328 331 331 331 331 331 331 331 331 329 326 323 320 316 311 306 302 299 295 291 287
215 215 218 217 217 217 218 219 216 218 223 228 231 233 235 243 255 269 281 291 301 312 318 321 322 324 325 327 326 326 325 325 325 323 320 317 312 308 304 301 297 293 288
229 227 229 227 223 222 223 224 222 223 227 231 235 237 240 248 260 271 281 289 296 303 308 311 315 318 321 324 325 324 323 322 321 320 318 317 314 311 308 304 300 296 291
240 235 233 231 228 227 229 230 229 230 232 236 241 244 247 254 264 275 283 289 294 298 303 306 311 313 314 317 319 320 322 321 320 318 317 315 314 313 310 307 303 299 294
249 245 242 239 237 236 237 236 237 238 240 243 246 249 254 260 268 275 283 289 293 295 299 303 307 309 311 313 314 316 318 318 318 317 316 315 314 313 311 309 306 302 299
254 250 249 247 244 242 242 241 242 243 245 248 251 254 258 264 270 275 282 287 291 294 297 300 303 305 307 310 311 312 313 315 316 314 313 313 313 312 311 310 308 305 302
258 254 252 251 249 247 246 247 247 249 250 252 255 259 263 268 272 277 282 286 289 293 296 298 300 303 306 308 309 310 311 312 313 313 312 311 311 311 310 309 308 306 303
258 256 253 252 253 252 252 252 252 254 255 257 260 264 268 272 276 279 282 285 288 291 293 295 298 301 304 305 307 309 309 309 309 310 310 310 310 310 310 309 308 306 304
261 256 255 254 254 255 254 255 256 257 258 262 265 269 272 276 279 281 283 285 287 290 292 294 297 299 300 303 305 307 307 307 307 308 308 309 309 309 309 308 308 306 304
262 258 257 258 256 255 255 256 258 261 262 266 270 273 275 277 280 282 284 285 287 289 292 294 296 298 299 301 303 305 306 306 305 306 307 308 308 308 307 307 307 305 303
261 258 257 260 260 259 260 259 261 264 267 270 273 275 277 279 281 283 284 285 287 289 292 294 296 297 299 300 301 303 303 303 304 305 305 307 307 306 306 306 306 305 304
261 261 261 262 262 261 262 262 263 267 270 272 274 276 278 280 281 283 284 286 288 290 293 294 295 296 298 299 301 301 302 302 303 304 304 305 306 306 306 306 306 305 303
262 263 263 263 263 262 263 264 265 268 270 273 275 277 279 281 283 285 286 288 289 290 292 293 294 295 296 298 299 300 300 301 302 303 303 304 305 304 305 305 305 303 302
261 261 263 262 260 261 263 265 267 270 271 273 276 279 280 282 283 285 286 288 289 290 292 293 294 295 296 297 298 299 299 300 300 301 302 303 303 304 304 304 304 302 300
259 261 261 261 262 262 263 265 268 270 273 276 278 280 282 283 285 286 287 288 289 290 292 293 293 294 295 296 297 297 298 298 299 300 300 301 302 302 302 302 302 301 299
260 261 262 263 264 264 265 265 268 272 274 276 277 281 283 284 285 286 287 288 289 290 290 291 292 293 294 295 295 295 296 297 298 298 298 299 299 300 300 300 300 299 297
263 263 263 263 265 268 268 269 273 274 276 278 280 282 283 284 284 285 286 288 289 289 291 291 292 292 293 294 294 294 294 295 296 296 297 297 297 296 297 297 297 297 296
264 264 265 267 269 270 271 272 275 276 278 279 280 281 282 284 285 285 286 288 289 290 291 291 291 291 292 292 292 292 293 293 293 294 295 294 293 293 294 294 294 294 293
269 270 271 273 275 277 278 279 279 280 281 282 282 283 284 285 286 286 287 287 288 289 290 290 290 290 291 290 290 290 291 291 291 291 292 292 291 291 291 291 292 292 291
Height
5839 5841 5844 5848 5850 5854 5856 5859 5861 5863 5865 5866 5867 5867 5868 5868 5867 5867 5866 5866 5866 5866 5865 5865 5864 5863 5862 5861 5860 5859 5858 5856 5855 5855 5854 5854 5854 5854 5854 5855 5855 5855 5856
5839 5841 5844 5847 5850 5852 5855 5858 5860 5862 5863 5864 5865 5866 5866 5866 5865 5865 5865 5865 5864 5864 5864 5863 5863 5862 5860 5859 5858 5857 5856 5854 5853 5852 5851 5851 5851 5851 5851 5851 5851 5851 5851
5840 5841 5844 5846 5849 5852 5854 5857 5858 5860 5861 5862 5863 5864 5864 5864 5864 5864 5864 5863 5863 5863 5862 5862 5861 5860 5859 5858 5856 5855 5854 5852 5851 5850 5849 5848 5847 5847 5847 5846 5846 5846 5846
5841 5842 5844 5846 5849 5851 5853 5855 5857 5858 5860 5860 5861 5862 5863 5863 5863 5863 5862 5862 5862 5861 5861 5860 5859 5858 5857 5856 5855 5853 5852 5850 5849 5847 5846 5845 5844 5843 5843 5842 5842 5841 5841
5842 5843 5845 5846 5849 5851 5852 5854 5856 5857 5858 5859 5860 5861 5861 5861 5861 5861 5861 5861 5860 5860 5859 5858 5857 5856 5855 5854 5852 5851 5849 5848 5846 5844 5843 5841 5840 5839 5838 5838 5837 5836 5836
5843 5844 5845 5847 5848 5850 5852 5853 5854 5856 5857 5858 5859 5859 5859 5859 5860 5860 5860 5859 5859 5858 5858 5857 5856 5854 5853 5852 5850 5848 5847 5845 5843 5841 5840 5838 5836 5835 5833 5832 5831 5830 5830
5843 5844 5845 5846 5848 5849 5851 5852 5853 5854 5856 5857 5857 5858 5858 5858 5858 5858 5858 5858 5857 5857 5856 5855 5854 5852 5851 5849 5848 5846 5844 5842 5840 5838 5836 5834 5832 5830 5829 5827 5825 5824 5823
5844 5844 5845 5846 5847 5849 5850 5851 5852 5853 5854 5855 5855 5856 5856 5856 5856 5856 5856 5856 5855 5855 5854 5853 5851 5850 5848 5847 5845 5843 5841 5838 5836 5834 5831 5829 5827 5825 5823 5821 5819 5817 5816
5843 5844 5845 5845 5846 5847 5848 5849 5850 5851 5852 5853 5853 5853 5854 5854 5854 5854 5854 5854 5853 5852 5851 5850 5848 5847 5845 5843 5841 5839 5837 5834 5832 5829 5827 5824 5821 5819 5817 5815 5813 5811 5809
5843 5843 5844 5844 5845 5846 5847 5848 5848 5849 5850 5850 5851 5851 5851 5851 5852 5851 5851 5850 5850 5849 5848 5846 5845 5843 5841 5839 5837 5835 5832 5830 5827 5824 5821 5818 5815 5813 5810 5808 5805 5803 5802
5842 5842 5842 5843 5843 5844 5845 5846 5846 5847 5847 5848 5848 5848 5848 5848 5848 5848 5847 5847 5846 5845 5844 5842 5841 5839 5837 5835 5832 5830 5827 5824 5821 5818 5815 5812 5809 5806 5803 5800 5798 5795 5793
5840 5841 5841 5841 5842 5842 5843 5843 5843 5844 5844 5844 5845 5844 5845 5845 5844 5844 5843 5843 5842 5841 5839 5838 5836 5834 5832 5830 5827 5824 5821 5818 5815 5812 5809 5805 5802 5799 5795 5792 5789 5787 5784
5838 5838 5838 5838 5839 5839 5839 5840 5840 5840 5841 5841 5841 5841 5841 5840 5840 5839 5839 5838 5837 5836 5834 5833 5831 5829 5826 5824 5821 5818 5815 5812 5809 5805 5802 5798 5795 5791 5788 5784 5781 5778 5775
5835 5835 5835 5835 5836 5836 5836 5836 5836 5836 5837 5837 5837 5836 5836 5835 5835 5834 5833 5832 5831 5830 5829 5827 5825 5823 5820 5817 5814 5811 5808 5805 5801 5798 5794 5791 5787 5783 5780 5776 5772 5768 5765
5832 5832 5832 5832 5832 5832 5832 5832 5832 5832 5832 5832 5832 5831 5831 5830 5829 5828 5827 5826 5825 5824 5822 5820 5818 5816 5813 5810 5807 5804 5800 5797 5793 5790 5786 5783 5779 5775 5771 5767 5763 5759 5755
5828 5828 5828 5828 5828 5828 5827 5827 5827 5827 5827 5826 5826 5825 5825 5824 5823 5822 5821 5820 5819 5817 5815 5813 5811 5808 5805 5802 5799 5796 5792 5789 5785 5781 5778 5774 5770 5766 5762 5758 5754 5750 5746
5823 5823 5823 5823 5823 5823 5822 5822 5821 5821 5820 5820 5819 5819 5818 5817 5816 5815 5814 5813 5811 5809 5807 5805 5803 5800 5797 5794 5791 5787 5784 5780 5776 5773 5769 5765 5761 5757 5753 5748 5744 5740 5735
5817 5817 5817 5817 5817 5816 5816 5815 5815 5814 5814 5813 5812 5811 5810 5809 5808 5807 5806 5804 5803 5801 5799 5796 5793 5791 5788 5785 5781 5778 5774 5771 5767 5763 5759 5755 5751 5746 5742 5738 5734 5729 5725
5811 5811 5810 5810 5810 5809 5809 5808 5808 5807 5806 5805 5804 5804 5803 5801 5800 5799 5797 5796 5794 5792 5789 5787 5784 5781 5778 5775 5771 5768 5764 5760 5757 5753 5749 5744 5740 5736 5731 5728 5723 5718 5714
5803 5803 5803 5802 5802 5802 5801 5801 5800 5799 5799 5797 5797 5795 5794 5793 5792 5790 5788 5786 5784 5782 5779 5777 5774 5771 5768 5764 5761 5757 5753 5750 5746 5742 5737 5733 5729 5725 5720 5716 5712 5707 5703
5795 5795 5795 5794 5794 5793 5793 5793 5792 5791 5790 5789 5788 5787 5785 5784 5782 5780 5778 5776 5774 5771 5769 5766 5763 5760 5757 5753 5749 5745 5741 5738 5734 5730 5726 5721 5717 5713 5708 5704 5700 5696 5692
5786 5786 5786 5786 5785 5784 5784 5784 5783 5782 5781 5780 5779 5777 5776 5774 5772 5770 5767 5765 5762 5760 5757 5754 5751 5748 5744 5741 5737 5733 5728 5725 5721 5718 5713 5709 5705 5700 5696 5692 5688 5683 5680
5778 5778 5777 5777 5776 5776 5776 5775 5774 5773 5772 5771 5769 5767 5765 5763 5761 5759 5756 5753 5750 5748 5745 5741 5739 5735 5732 5728 5724 5720 5715 5711 5707 5704 5700 5696 5692 5687 5683 5679 5675 5671 5667
5769 5769 5769 5768 5768 5767 5767 5766 5764 5763 5762 5761 5759 5756 5754 5752 5749 5747 5744 5741 5737 5734 5731 5728 5725 5722 5718 5714 5710 5705 5701 5697 5693 5689 5686 5682 5678 5674 5670 5666 5662 5659 5655
5761 5761 5760 5760 5759 5758 5757 5756 5754 5753 5751 5750 5747 5745 5742 5740 5737 5734 5731 5727 5724 5720 5717 5713 5710 5706 5704 5700 5695 5690 5687 5683 5678 5674 5671 5668 5664 5660 5657 5653 5650 5646 5643
5754 5753 5752 5751 5750 5748 5747 5745 5744 5742 5740 5738 5735 5732 5730 5727 5724 5720 5717 5713 5710 5706 5701 5697 5693 5690 5687 5683 5679 5675 5671 5667 5663 5659 5656 5653 5649 5646 5643 5640 5637 5633 5630